Point Pleasant, WV

7:15 PM EDT on April 25, 2017 (GMT -0400)
Point Pleasant

Weather History for K3I2 - January, 2013

Change the Weather History Date:

Thursday, January 10, 2013

  Actual Average (KHTS) Record (KHTS)
Temperature  
Mean Temperature 35 °F -  
Max Temperature 44 °F 41 °F 68 °F (1939)
Min Temperature 26 °F 25 °F -9 °F (1982)
Degree Days  
Heating Degree Days 30    
Moisture  
Dew Point 33 °F    
Average Humidity 90    
Maximum Humidity 100    
Minimum Humidity 71    
Precipitation  
Precipitation 0.00 in - - ()
Sea Level Pressure  
Sea Level Pressure 30.45 in    
Wind  
Wind Speed 1 mph (ENE)    
Max Wind Speed 8 mph    
Max Gust Speed -    
Visibility 7 miles    
Events Fog    
Averages and records for this station are not official NWS values.
T = Trace of Precipitation, MM = Missing Value Source: NWS Daily Summary

Daily Weather History Graph

Daily Weather History Graph

Search for Another Location

Airport or City:

Trip Planner

Search our weather history database for the weather conditions in past years. The results will help you decide how hot, cold, wet, or windy it might be!

Date:

Astronomy

Jan. 10, 2013 Rise Set
Actual Time 7:46 AM EST 5:25 PM EST
Civil Twilight 7:17 AM EST 5:55 PM EST
Nautical Twilight 6:44 AM EST 6:28 PM EST
Astronomical Twilight 6:12 AM EST 7:00 PM EST
Moon 6:25 AM EST (1/10) 4:31 PM EST (1/10)
Length of Visible Light 10h 37m
Length of Day
9h 38m
Waning Crescent, 2% of the Moon is Illuminated
Jan 10
Waning Crescent
Jan 11
New
Jan 18
First Quarter
Jan 26
Full
Feb 3
Last Quarter

Hourly Weather History & Observations

Time (EST) Temp. Windchill Dew Point Humidity Pressure Visibility Wind Dir Wind Speed Gust Speed Precip Events Conditions
12:15 AM 30.2 °F - 30.2 °F 100% 30.54 in 2.5 mi Calm Calm - N/A   Overcast
12:35 AM 30.2 °F - 30.2 °F 100% 30.55 in 0.5 mi Calm Calm - N/A Fog Light Freezing Fog
12:55 AM 30.2 °F - 30.2 °F 100% 30.55 in 0.2 mi Calm Calm - N/A Fog Light Freezing Fog
1:15 AM 30.2 °F - 30.2 °F 100% 30.55 in 0.2 mi Calm Calm - N/A Fog Light Freezing Fog
1:35 AM 30.2 °F - 30.2 °F 100% 30.55 in 0.5 mi Calm Calm - N/A Fog Light Freezing Fog
1:55 AM 30.2 °F - 30.2 °F 100% 30.55 in 0.2 mi Calm Calm - N/A Fog Light Freezing Fog
3:15 AM 28.4 °F - 28.4 °F 100% 30.54 in 0.2 mi Calm Calm - N/A Fog Light Freezing Fog
3:35 AM 28.4 °F - 28.4 °F 100% 30.54 in 0.8 mi Calm Calm - N/A   Overcast
3:55 AM 28.4 °F - 26.6 °F 93% 30.53 in 0.5 mi Calm Calm - N/A Fog Light Freezing Fog
4:15 AM 26.6 °F - 26.6 °F 100% 30.53 in 0.8 mi Calm Calm - N/A   Overcast
4:35 AM 28.4 °F - 26.6 °F 93% 30.53 in 0.2 mi Calm Calm - N/A Fog Light Freezing Fog
4:55 AM 28.4 °F - 28.4 °F 100% 30.52 in 0.5 mi Calm Calm - N/A Fog Light Freezing Fog
5:15 AM 28.4 °F - 28.4 °F 100% 30.52 in 0.2 mi Calm Calm - N/A Fog Light Freezing Fog
5:35 AM 28.4 °F - 26.6 °F 93% 30.53 in 0.2 mi Calm Calm - N/A Fog Light Freezing Fog
5:55 AM 28.4 °F - 26.6 °F 93% 30.53 in 0.8 mi Calm Calm - N/A   Overcast
6:15 AM 26.6 °F - 26.6 °F 100% 30.55 in 0.8 mi Calm Calm - N/A   Overcast
6:35 AM 28.4 °F - 26.6 °F 93% 30.55 in 2.5 mi Calm Calm - N/A   Mostly Cloudy
6:55 AM 28.4 °F - 26.6 °F 93% 30.56 in 7.0 mi Calm Calm - N/A   Mostly Cloudy
7:15 AM 28.4 °F - 26.6 °F 93% 30.56 in 7.0 mi Calm Calm - N/A   Scattered Clouds
7:35 AM 28.4 °F - 26.6 °F 93% 30.56 in 7.0 mi Calm Calm - N/A   Clear
7:55 AM 28.4 °F - 28.4 °F 100% 30.56 in 7.0 mi Calm Calm - N/A   Clear
8:35 AM 28.4 °F - 28.4 °F 100% 30.57 in 10.0 mi Calm Calm - N/A   Clear
9:15 AM 30.2 °F - 30.2 °F 100% 30.57 in 7.0 mi Calm Calm - N/A   Clear
9:35 AM 30.2 °F - 30.2 °F 100% 30.57 in 5.0 mi Calm Calm - N/A   Clear
9:55 AM 30.2 °F - 30.2 °F 100% 30.57 in 7.0 mi Calm Calm - N/A   Clear
10:15 AM 32.0 °F - 32.0 °F 100% 30.57 in 7.0 mi Calm Calm - N/A   Clear
10:35 AM 32.0 °F - 32.0 °F 100% 30.57 in 7.0 mi Calm Calm - N/A   Clear
10:55 AM 32.0 °F 28.7 °F 32.0 °F 100% 30.55 in 5.0 mi ENE 3.5 mph - N/A   Clear
11:15 AM 35.6 °F - 33.8 °F 93% 30.54 in 5.0 mi Calm Calm - N/A   Clear
11:35 AM 35.6 °F - 35.6 °F 100% 30.53 in 5.0 mi Calm Calm - N/A   Clear
11:55 AM 37.4 °F - 35.6 °F 93% 30.53 in 5.0 mi Calm Calm - N/A   Clear
12:15 PM 37.4 °F 34.9 °F 35.6 °F 93% 30.51 in 7.0 mi ENE 3.5 mph - N/A   Clear
12:55 PM 37.4 °F 32.8 °F 37.4 °F 100% 30.49 in 10.0 mi ENE 5.8 mph - N/A   Clear
1:15 PM 37.4 °F 34.9 °F 37.4 °F 100% 30.48 in 10.0 mi East 3.5 mph - N/A   Clear
1:35 PM 39.2 °F 33.6 °F 37.4 °F 93% 30.46 in 10.0 mi ENE 8.1 mph - N/A   Clear
1:55 PM 41.0 °F 38.0 °F 39.2 °F 93% 30.46 in 10.0 mi East 4.6 mph - N/A   Clear
2:15 PM 42.8 °F 41.1 °F 35.6 °F 76% 30.46 in 10.0 mi East 3.5 mph - N/A   Clear
2:35 PM 42.8 °F 38.6 °F 37.4 °F 81% 30.44 in 10.0 mi ENE 6.9 mph - N/A   Clear
3:15 PM 44.6 °F 40.7 °F 35.6 °F 71% 30.42 in 10.0 mi NE 6.9 mph - N/A   Clear
3:35 PM 44.6 °F 40.7 °F 35.6 °F 71% 30.40 in 10.0 mi ENE 6.9 mph - N/A   Clear
3:55 PM 44.6 °F 41.4 °F 35.6 °F 71% 30.40 in 10.0 mi ENE 5.8 mph - N/A   Clear
4:15 PM 44.6 °F 41.4 °F 35.6 °F 71% 30.40 in 10.0 mi East 5.8 mph - N/A   Clear
4:35 PM 44.6 °F - 35.6 °F 71% 30.40 in 10.0 mi Calm Calm - N/A   Clear
4:55 PM 44.6 °F - 35.6 °F 71% 30.40 in 10.0 mi Calm Calm - N/A   Clear
5:15 PM 44.6 °F - 35.6 °F 71% 30.38 in 10.0 mi Calm Calm - N/A   Clear
5:35 PM 42.8 °F - 35.6 °F 76% 30.38 in 10.0 mi Calm Calm - N/A   Clear
5:55 PM 42.8 °F - 35.6 °F 76% 30.37 in 10.0 mi Calm Calm - N/A   Clear
6:15 PM 42.8 °F - 35.6 °F 76% 30.36 in 10.0 mi Calm Calm - N/A   Clear
6:35 PM 42.8 °F - 35.6 °F 76% 30.35 in 10.0 mi Calm Calm - N/A   Scattered Clouds
6:55 PM 42.8 °F - 35.6 °F 76% 30.34 in 10.0 mi Calm Calm - N/A   Scattered Clouds
7:15 PM 41.0 °F - 35.6 °F 81% 30.34 in 10.0 mi Calm Calm - N/A   Clear
7:35 PM 41.0 °F - 35.6 °F 81% 30.33 in 10.0 mi Calm Calm - N/A   Clear
7:55 PM 41.0 °F - 35.6 °F 81% 30.32 in 10.0 mi Calm Calm - N/A   Scattered Clouds
8:15 PM 41.0 °F - 35.6 °F 81% 30.31 in 10.0 mi Calm Calm - N/A   Clear
8:35 PM 41.0 °F - 35.6 °F 81% 30.30 in 10.0 mi Calm Calm - N/A   Clear
8:55 PM 39.2 °F - 35.6 °F 87% 30.29 in 10.0 mi Calm Calm - N/A   Clear
9:15 PM 39.2 °F - 35.6 °F 87% 30.29 in 10.0 mi Calm Calm - N/A   Clear
9:35 PM 39.2 °F - 35.6 °F 87% 30.28 in 10.0 mi Calm Calm - N/A   Clear
9:55 PM 37.4 °F - 35.6 °F 93% 30.27 in 10.0 mi Calm Calm - N/A   Clear
10:15 PM 37.4 °F - 33.8 °F 87% 30.26 in 10.0 mi Calm Calm - N/A   Clear
10:35 PM 37.4 °F - 33.8 °F 87% 30.24 in 10.0 mi Calm Calm - N/A   Clear
10:55 PM 37.4 °F - 33.8 °F 87% 30.23 in 10.0 mi Calm Calm - N/A   Clear
11:15 PM 37.4 °F - 33.8 °F 87% 30.23 in 10.0 mi Calm Calm - N/A   Clear
11:35 PM 37.4 °F - 33.8 °F 87% 30.22 in 10.0 mi Calm Calm - N/A   Clear
11:55 PM 37.4 °F - 35.6 °F 93% 30.21 in 10.0 mi Calm Calm - N/A   Clear